Date,TemperatureHighF,TemperatureAvgF,TemperatureLowF,DewpointHighF,DewpointAvgF,DewpointLowF,HumidityHigh,HumidityAvg,HumidityLow,PressureMaxIn,PressureMinIn,WindSpeedMaxMPH,WindSpeedAvgMPH,GustSpeedMaxMPH,PrecipitationSumIn
2013-9-1,88.8,82.7,76.9,78.0,75.7,74.0,96,80,63,29.99,29.92,5,1,8,0.00
2013-9-2,88.7,83.6,77.6,79.0,75.9,74.0,95,78,63,30.02,29.93,6,1,8,0.00
2013-9-3,90.0,84.1,76.5,79.0,76.1,74.0,96,77,65,30.03,29.93,5,1,6,0.00
2013-9-4,92.0,81.5,74.1,80.0,76.3,72.0,98,85,60,30.09,29.97,6,1,15,0.43
2013-9-5,90.7,82.6,74.4,81.0,76.7,72.0,97,83,67,30.09,30.01,5,1,8,0.00
2013-9-6,90.3,81.9,74.9,81.0,76.3,72.0,94,83,62,30.06,29.95,10,2,18,0.00
2013-9-7,88.7,79.2,71.8,78.0,73.6,70.0,96,83,65,30.03,29.93,8,2,14,0.05
2013-9-8,89.3,81.5,74.0,76.0,73.9,71.0,96,79,56,29.98,29.87,6,1,11,0.01
2013-9-9,91.1,82.6,74.3,76.0,73.3,70.0,95,75,53,30.03,29.93,8,2,11,0.00
2013-9-10,90.9,82.4,74.6,76.0,72.1,67.0,95,73,47,30.08,29.99,13,3,18,0.00
2013-9-11,91.9,83.0,75.1,76.0,72.0,67.0,95,72,44,30.07,29.98,13,4,17,0.00
2013-9-12,86.9,79.9,75.0,77.0,74.6,72.0,96,84,67,30.02,29.89,8,1,11,0.30
2013-9-13,88.7,80.5,74.4,79.0,75.2,73.0,97,84,62,29.91,29.82,2,0,5,0.00
2013-9-14,90.2,83.3,76.2,78.0,76.3,74.0,95,80,66,29.98,29.84,3,0,7,0.00
2013-9-15,93.2,81.6,74.9,79.0,73.9,70.0,94,79,52,30.08,29.96,11,3,24,0.01
2013-9-16,92.7,79.9,74.2,77.0,74.2,72.0,97,84,51,30.07,29.97,10,2,15,0.44
2013-9-17,91.4,79.7,73.6,77.0,73.8,71.0,98,84,53,30.05,29.93,8,2,14,0.04
2013-9-18,89.5,79.9,74.9,76.0,74.4,73.0,96,84,62,30.04,29.96,16,3,19,0.00
2013-9-19,89.1,79.6,73.9,78.0,74.4,73.0,97,85,62,30.05,29.96,10,2,13,0.54
2013-9-20,87.8,79.5,72.1,75.0,73.2,70.0,97,82,59,30.03,29.89,7,1,10,0.00
2013-9-21,86.8,80.0,71.9,78.0,72.1,68.0,93,77,54,29.94,29.78,10,2,12,0.00
2013-9-22,88.8,81.3,75.5,80.0,76.7,73.0,97,86,72,29.84,29.75,5,1,11,0.46
2013-9-23,83.5,77.9,76.2,79.0,76.5,75.0,98,95,85,29.94,29.82,6,2,12,0.59
2013-9-24,83.0,78.3,74.4,79.0,76.2,72.0,98,93,84,29.94,29.84,7,2,15,1.21
2013-9-25,81.2,76.4,70.8,79.0,74.4,70.0,99,93,83,29.91,29.79,13,3,19,4.25
2013-9-26,86.3,81.8,75.0,80.0,77.2,71.0,93,86,78,29.89,29.78,10,3,12,0.00
2013-9-27,84.4,76.4,70.0,76.0,71.6,68.0,95,85,67,29.97,29.88,8,2,17,0.00
2013-9-28,87.1,76.4,70.8,77.0,72.1,70.0,96,87,61,30.00,29.93,9,3,18,0.04
2013-9-29,85.9,77.7,69.6,75.0,70.9,66.0,96,81,52,30.00,29.90,7,2,10,0.00
2013-9-30,88.7,78.2,71.3,76.0,71.6,66.0,96,81,49,30.00,29.92,5,2,11,0.00